This demonstration page uses our WeatherBlox Daily Observations layout. Learn more.

38.88101, -77.10428

Hourly Observations for August 18, 2016

Temp ( °F °C ) Dew Point ( °F °C ) Humidity (%) Winds ( mph kmh ) Pressure ( in mb ) Visibility ( mi km ) Precip ( " mm )
12:52 am 00:52 Mostly Cloudy 75 23.9 72 22.2 90 90 S 6 9 30.03 1017 10 16.09344 0.001 0.001
1:08 am 01:08 Mostly Cloudy 75 24 73 23 94 94 SW 6 9 30.06 1018 10 16.09344 0 0
1:52 am 01:52 Mostly Clear 74 23.3 72 22.2 94 94 SW 7 11 30.06 1018 10 16.09344 0 0
2:52 am 02:52 Cloudy 75 23.9 72 22.2 90 90 WSW 3 6 30.03 1017 10 16.09344 0 0
3:52 am 03:52 Cloudy 75 23.9 72 22.2 90 90 Calm 30.03 1017 10 16.09344 0 0
4:52 am 04:52 Cloudy 75 23.9 72 22.2 90 90 W 5 7 30.03 1017 10 16.09344 0 0
5:52 am 05:52 Cloudy with Light Rain 76 24.4 72 22.2 88 88 WSW 5 7 30.03 1017 10 16.09344 0.001 0.001
6:52 am 06:52 Mostly Cloudy 76 24.4 72 22.2 88 88 W 5 7 30.03 1017 10 16.09344 0.001 0.001
7:52 am 07:52 Mostly Cloudy 78 25.6 72 22.2 82 82 NW 10 17 30.06 1018 10 16.09344 0 0
8:52 am 08:52 Mostly Cloudy 78 25.6 72 22.2 82 82 NNW 9 15 30.06 1018 10 16.09344 0 0
9:52 am 09:52 Mostly Cloudy 79 26.1 71 21.7 77 77 NNW 10 17 30.06 1018 10 16.09344 0 0
10:52 am 10:52 Partly Cloudy 83 28.3 71 21.7 67 67 NNW 10 17 30.06 1018 10 16.09344 0 0
11:52 am 11:52 Partly Cloudy 86 30 70 21.1 59 59 NNW 6 9 30.03 1017 10 16.09344 0 0
12:52 pm 12:52 Partly Cloudy 87 30.6 69 20.6 55 55 N 8 13 30.03 1017 10 16.09344 0 0
1:52 pm 13:52 Partly Cloudy 90 32.2 69 20.6 50 50 NW 10 17 30.03 1017 10 16.09344 0 0
2:52 pm 14:52 Cloudy 91 32.8 69 20.6 49 49 NNW 12 19 30 1016 10 16.09344 0 0
3:52 pm 15:52 Mostly Cloudy 91 32.8 69 20.6 49 49 N 12 19 29.97 1015 10 16.09344 0 0
4:52 pm 16:52 Mostly Cloudy 89 31.7 67 19.4 48 48 N 8 13 29.97 1015 10 16.09344 0 0
5:52 pm 17:52 Mostly Cloudy 91 32.8 67 19.4 45 45 WNW 8 13 29.97 1015 10 16.09344 0 0
6:52 pm 18:52 Mostly Cloudy 88 31.1 68 20 52 52 NW 3 6 29.94 1014 10 16.09344 0 0
7:52 pm 19:52 Mostly Cloudy 86 30 70 21.1 59 59 SSW 9 15 29.97 1015 10 16.09344 0 0
8:52 pm 20:52 Mostly Cloudy 84 28.9 72 22.2 67 67 SW 7 11 29.97 1015 10 16.09344 0 0
9:52 pm 21:52 Mostly Cloudy 84 28.9 71 21.7 65 65 SW 9 15 30 1016 10 16.09344 0 0
10:52 pm 22:52 Mostly Cloudy 83 28.3 71 21.7 67 67 W 10 17 30 1016 10 16.09344 0 0
11:52 pm 23:52 Mostly Cloudy 81 27.2 72 22.2 74 74 WSW 12 19 30 1016 10 16.09344 0 0

Powered by AerisWeather